Vertical_Velocity
-2 -1 2 -1 1 -2 0 2 -1 -1 3 -3 -1 1 -1 2 -0 -0 -0 -1 0 -1 0 0 -0 0 -1 -0 -1 -2 4 0 -0 0 3 -0 1 -1 -2 1 -1 -0 1 -1 0
-0 0 1 -1 -1 -0 2 1 -1 -1 -0 -0 -1 3 -1 0 0 1 1 -3 2 -0 0 -0 0 -1 1 -0 -1 3 2 -0 1 0 0 -0 0 -0 2 1 2 1 -0 0 1
-2 3 -0 1 1 -0 0 -1 -1 1 0 -1 1 1 -1 0 1 0 1 -1 -0 0 -1 -0 -1 0 0 -1 -0 -0 1 0 1 0 -1 -0 1 -1 1 1 0 2 0 -0 0
2 2 -0 -5 1 -0 0 -1 2 -2 0 4 -2 1 -2 2 7 -1 -1 -0 1 -0 -1 -0 -1 1 0 1 -1 2 -0 -0 1 -0 -0 0 -1 0 -0 2 -1 -0 1 -0 -1
-0 -0 2 1 0 -0 -1 -1 1 1 1 1 -1 -1 -0 2 1 -0 -1 1 1 -2 0 -0 -0 -1 0 -1 -1 0 0 -0 -0 -0 0 -1 -0 0 -0 -1 -1 -0 1 1 2
-1 -1 1 2 -1 -1 2 -0 1 -1 2 -3 -1 -1 2 4 -0 -1 -2 2 0 -2 1 -0 -0 -1 -2 -0 1 -0 -0 0 0 -0 -0 1 -0 1 0 -2 -0 -0 2 2 1
-0 -2 3 -1 0 1 1 -1 -0 0 -2 -1 -1 2 2 -0 1 -1 -1 1 0 -0 0 -0 0 1 -1 1 -1 -1 1 1 0 0 0 -0 4 -1 -0 -1 0 -0 1 1 1
1 3 -1 1 -0 -1 1 -0 -3 0 -2 -0 1 1 2 1 1 -1 -0 1 2 -1 -1 -0 -0 -1 -1 -2 -0 2 3 2 3 -0 -0 5 -2 2 -0 -1 -1 -0 1 0 0
-0 -1 -0 -2 -1 -1 -0 -2 -2 1 1 2 0 1 2 1 1 -0 0 1 1 -1 0 1 1 -1 1 1 3 2 1 1 2 -0 0 4 -2 1 -1 -1 0 -0 -0 1 1
-1 -2 -2 -2 -1 -2 -1 -3 2 -0 2 1 2 5 1 0 -1 -1 -0 2 -0 1 0 2 -1 1 1 3 -0 -0 1 0 -0 3 0 -0 -6 -2 -1 -1 -0 -0 0 1 1
-0 -1 -2 1 -0 0 2 1 1 -1 2 1 1 0 0 0 -0 1 0 1 0 0 2 -1 5 -1 -1 -0 0 0 1 0 -0 1 3 -1 -1 -4 -2 1 0 0 0 1 2
0 -0 1 -2 1 -1 1 1 1 -1 2 1 0 -0 0 0 0 1 1 1 1 0 1 5 -0 1 -1 -0 -0 0 0 -2 1 0 4 -0 -6 -1 0 -1 -0 -0 -0 1 1
-1 -1 1 -1 0 1 1 -0 0 -0 2 -0 -0 0 0 0 -0 1 -0 0 0 2 0 1 4 -0 -0 1 1 -0 0 -0 1 -0 1 2 -1 2 2 1 -0 -1 -1 -1 1
1 1 2 0 0 -0 -1 -1 0 0 2 2 1 1 0 -1 2 0 -1 -0 1 -0 -0 1 2 -0 1 0 1 2 0 -0 -0 1 1 3 -4 1 0 1 1 0 -0 0 0
-0 0 2 -2 -0 -0 -1 -1 -2 1 2 1 1 0 -0 0 -1 2 0 1 -0 -0 3 2 1 1 1 -1 1 2 -1 -1 -0 -0 1 3 2 -3 1 1 -1 0 0 0 0
1 -0 -2 -1 2 -0 -1 -0 -1 6 -6 1 0 1 1 -1 0 0 1 -0 -2 -1 -0 1 -1 1 2 1 0 -0 0 0 0 -0 2 0 4 -6 -1 -5 1 2 1 0 0
1 -0 -0 0 1 0 -1 0 5 2 0 1 1 -1 0 0 0 0 0 1 1 3 2 2 1 1 0 0 2 1 2 0 3 3 -1 0 4 -10 -0 0 -1 -2 1 1 1
1 -0 -1 -0 -1 -1 0 2 3 -0 -0 1 0 -0 1 1 1 -0 0 1 1 0 0 1 3 2 1 1 -1 -2 -0 -0 -1 1 0 1 -3 -7 1 0 0 2 0 -1 0
1 1 -0 -0 -0 0 0 0 -0 0 1 0 1 1 0 0 3 1 0 1 2 1 2 1 2 1 -1 0 4 3 3 2 -1 1 3 -4 -3 7 1 1 1 0 0 1 1
0 -0 -0 0 -0 -0 -1 -2 1 0 0 0 1 2 0 -0 1 0 -0 1 1 0 0 2 1 1 2 1 2 3 4 4 0 1 -1 0 -1 -4 1 -0 0 1 0 0 -0
-0 0 -0 -0 -1 -0 -0 1 0 0 1 2 0 0 0 1 1 -0 2 2 -0 0 -0 -0 3 5 3 1 -2 3 1 2 3 2 2 0 -4 1 0 -0 -2 -1 0 0 -1
-2 0 -1 -0 -1 -1 -0 1 1 0 -1 0 -1 -0 0 0 0 0 1 1 -0 -0 0 2 -0 -0 1 2 1 1 0 -1 4 -1 1 1 -11 0 1 -0 0 -1 -2 -0 0
-0 -0 -1 -1 0 0 1 1 -0 -1 1 -0 -0 0 0 0 1 0 0 -0 -0 0 -1 -3 -0 -0 3 5 3 1 0 -0 0 0 -4 6 -4 0 -0 -1 -1 0 1 -2 -2
0 1 -2 -4 -1 -2 -0 1 1 0 0 0 0 -0 0 0 -0 0 0 0 1 1 0 1 0 -0 -1 4 1 1 1 0 1 3 -4 -9 -9 -3 -1 -1 -1 -3 -3 1 1
-2 1 -0 0 -0 -1 -2 0 -0 -0 -1 -1 1 -1 0 0 -0 0 -0 -2 1 1 -0 0 1 2 -2 0 1 -0 0 -0 1 -6 7 -13 2 -3 1 0 -2 1 1 -0 -2
-2 -2 -1 -0 -0 -1 -0 2 0 1 2 0 -1 0 0 1 3 0 1 1 2 -1 -0 -0 -1 -0 -3 -2 2 0 -1 0 -0 -2 1 2 -8 1 -2 -0 -1 1 3 2 3
-2 -1 -1 1 -0 -1 1 1 0 0 1 -0 0 1 0 0 -0 -0 -0 -1 2 2 -0 1 1 0 -3 -0 -1 0 -2 -1 -1 0 0 1 -0 -0 -4 -1 -0 -0 1 1 1
Height
1514 1513 1512 1512 1511 1512 1512 1510 1510 1510 1510 1509 1509 1507 1507 1507 1507 1505 1506 1507 1505 1503 1503 1503 1504 1505 1507 1507 1507 1507 1505 1503 1504 1507 1507 1513 1512 1513 1513 1514 1515 1515 1516 1516 1516
1515 1513 1512 1511 1511 1511 1510 1509 1509 1509 1508 1508 1508 1507 1507 1507 1507 1505 1506 1505 1504 1503 1503 1504 1505 1506 1508 1508 1508 1506 1504 1503 1509 1509 1509 1513 1513 1514 1513 1513 1513 1514 1514 1515 1516
1515 1512 1512 1510 1511 1510 1509 1508 1508 1507 1508 1507 1507 1507 1507 1507 1508 1505 1504 1504 1503 1502 1503 1504 1505 1507 1507 1508 1508 1507 1504 1509 1510 1511 1512 1513 1513 1513 1512 1509 1511 1512 1513 1513 1515
1514 1512 1511 1511 1510 1510 1508 1508 1508 1507 1507 1506 1506 1506 1507 1507 1507 1504 1503 1503 1502 1502 1503 1503 1505 1507 1506 1505 1508 1506 1510 1510 1511 1512 1512 1512 1513 1511 1511 1511 1510 1511 1511 1511 1512
1512 1512 1512 1511 1508 1508 1507 1507 1507 1507 1506 1506 1505 1506 1506 1506 1505 1503 1502 1502 1502 1501 1503 1503 1505 1506 1504 1506 1508 1507 1510 1512 1512 1512 1512 1512 1512 1510 1509 1509 1509 1508 1508 1508 1511
1512 1512 1511 1509 1507 1507 1506 1506 1505 1506 1505 1505 1504 1505 1505 1506 1503 1502 1502 1502 1501 1502 1502 1503 1504 1505 1506 1507 1508 1510 1511 1512 1512 1512 1512 1511 1510 1510 1507 1507 1507 1505 1505 1506 1507
1512 1511 1509 1507 1506 1506 1505 1504 1504 1504 1503 1503 1504 1503 1503 1503 1501 1501 1502 1501 1501 1502 1502 1503 1504 1505 1506 1507 1509 1510 1510 1512 1512 1513 1511 1512 1507 1505 1505 1505 1504 1503 1503 1503 1504
1511 1509 1508 1506 1505 1504 1503 1502 1502 1502 1502 1503 1503 1503 1502 1500 1500 1501 1501 1501 1501 1501 1503 1503 1504 1504 1506 1509 1510 1508 1509 1504 1510 1512 1511 1510 1493 1500 1503 1503 1502 1501 1500 1501 1502
1510 1508 1507 1505 1504 1502 1501 1501 1500 1501 1502 1501 1502 1502 1501 1500 1500 1500 1501 1501 1500 1502 1503 1503 1504 1505 1508 1505 1505 1507 1497 1502 1505 1513 1512 1508 1493 1499 1501 1501 1500 1499 1498 1499 1500
1509 1508 1506 1504 1503 1501 1500 1500 1499 1500 1501 1501 1500 1503 1500 1499 1499 1500 1500 1500 1501 1502 1504 1504 1504 1502 1504 1502 1501 1497 1500 1504 1501 1512 1510 1505 1496 1495 1499 1499 1498 1497 1496 1496 1498
1508 1506 1505 1503 1501 1500 1500 1500 1502 1502 1499 1498 1498 1498 1498 1498 1499 1499 1499 1500 1501 1503 1500 1503 1500 1497 1496 1502 1505 1504 1503 1502 1503 1513 1512 1501 1498 1493 1495 1496 1495 1495 1494 1495 1497
1507 1504 1503 1501 1500 1499 1499 1498 1497 1499 1497 1495 1496 1497 1498 1497 1499 1498 1499 1501 1500 1498 1503 1503 1496 1503 1506 1507 1507 1507 1505 1501 1505 1513 1511 1501 1492 1490 1493 1493 1495 1495 1494 1495 1496
1504 1503 1501 1499 1499 1498 1497 1497 1496 1496 1496 1496 1495 1496 1497 1498 1497 1497 1498 1498 1499 1499 1499 1495 1503 1507 1506 1507 1507 1505 1504 1505 1506 1509 1512 1507 1484 1486 1490 1492 1493 1493 1492 1492 1494
1503 1501 1499 1498 1500 1497 1496 1496 1495 1495 1495 1496 1496 1496 1497 1496 1497 1496 1497 1500 1499 1497 1500 1500 1507 1507 1506 1505 1506 1505 1510 1511 1512 1508 1500 1508 1489 1477 1480 1485 1488 1489 1490 1491 1491
1500 1499 1498 1496 1496 1496 1496 1495 1495 1496 1504 1498 1496 1496 1495 1497 1497 1497 1497 1497 1496 1498 1502 1497 1505 1506 1505 1504 1508 1505 1513 1512 1516 1513 1515 1503 1506 1461 1482 1480 1480 1485 1488 1489 1489
1499 1497 1496 1495 1495 1494 1494 1494 1496 1498 1508 1495 1496 1495 1496 1496 1497 1497 1497 1497 1498 1500 1502 1505 1509 1508 1506 1512 1512 1515 1513 1514 1516 1513 1511 1506 1498 1460 1468 1467 1470 1481 1485 1486 1487
1497 1495 1495 1494 1494 1493 1493 1495 1497 1498 1496 1496 1495 1496 1496 1495 1496 1497 1497 1497 1494 1495 1493 1504 1505 1511 1511 1509 1515 1513 1507 1499 1502 1508 1486 1512 1504 1465 1468 1475 1474 1479 1484 1486 1486
1495 1494 1493 1493 1492 1492 1494 1495 1501 1493 1493 1498 1498 1498 1495 1498 1497 1497 1495 1491 1501 1499 1496 1490 1490 1507 1512 1509 1506 1507 1509 1494 1492 1478 1468 1513 1489 1460 1477 1481 1482 1483 1485 1486 1487
1493 1492 1492 1492 1492 1492 1495 1497 1492 1497 1501 1499 1497 1495 1494 1499 1500 1496 1496 1498 1505 1505 1498 1495 1491 1514 1515 1515 1516 1510 1507 1509 1514 1529 1506 1466 1467 1470 1480 1482 1483 1485 1486 1487 1487
1492 1492 1492 1492 1491 1493 1494 1496 1498 1503 1502 1501 1496 1498 1495 1497 1496 1494 1494 1509 1506 1508 1508 1502 1497 1513 1516 1517 1518 1515 1517 1505 1509 1494 1477 1464 1477 1457 1473 1478 1483 1485 1486 1488 1488
1491 1491 1492 1491 1492 1493 1495 1500 1503 1505 1504 1503 1500 1500 1501 1501 1501 1497 1501 1509 1508 1507 1507 1508 1505 1509 1513 1509 1505 1514 1511 1514 1514 1501 1482 1468 1457 1481 1479 1481 1482 1484 1487 1488 1488
1490 1492 1492 1491 1494 1499 1498 1503 1504 1505 1504 1505 1505 1505 1504 1505 1502 1500 1502 1506 1507 1507 1505 1511 1508 1500 1496 1520 1522 1517 1509 1507 1494 1493 1502 1503 1474 1483 1486 1485 1485 1487 1488 1489 1489
1489 1489 1491 1490 1492 1499 1504 1505 1506 1506 1506 1505 1506 1507 1508 1506 1505 1504 1505 1507 1507 1507 1506 1509 1504 1496 1493 1516 1520 1514 1515 1514 1513 1509 1489 1489 1466 1485 1486 1486 1485 1487 1487 1487 1488
1488 1489 1492 1492 1497 1499 1502 1505 1506 1507 1508 1508 1508 1508 1507 1506 1507 1504 1504 1506 1507 1506 1506 1506 1505 1497 1487 1485 1500 1507 1511 1516 1509 1496 1482 1472 1469 1478 1482 1484 1485 1485 1485 1485 1486
1487 1495 1497 1501 1502 1504 1504 1508 1507 1508 1509 1509 1509 1510 1511 1508 1505 1505 1508 1507 1507 1508 1508 1509 1506 1500 1496 1498 1501 1500 1499 1504 1508 1494 1495 1470 1478 1481 1483 1484 1481 1479 1480 1481 1482
1489 1494 1499 1504 1505 1505 1507 1511 1510 1512 1512 1509 1509 1512 1512 1511 1510 1509 1512 1510 1508 1510 1509 1511 1502 1510 1501 1494 1496 1498 1495 1495 1494 1492 1488 1485 1481 1488 1487 1484 1480 1478 1478 1479 1480
1492 1494 1497 1508 1508 1507 1512 1513 1513 1514 1514 1513 1513 1513 1511 1512 1514 1514 1514 1514 1513 1514 1511 1513 1506 1505 1494 1495 1494 1489 1488 1488 1487 1489 1488 1485 1484 1487 1482 1481 1479 1477 1476 1477 1478